[[{"header":{"parameterUnit":"m.s-1","parameterCategory":1,"la1":30.2991,"la2":30.254,"lo1":-89.0895,"lo2":-89.0444,"dy":0.0017,"dx":0.0017,"nx":28,"ny":28,"refTime":"2023-10-18T09:00:00:Z","depth":0,"parameterNumber":2,"parameterNumberName":"U-component_of_WINDS"},"data":[0,0,0,0,0,0,0,0,0,0,0,0,0,0,0,0,0,0,0,0,0,0,0,0,0,0,0,0,0,0,0,0,0,0,0,0,0,0,0,0,0,0,0,0,0,0,0,0,0,0,0,0,0,0,0,0,0,0,-2.1074,-2.1074,0,-2.1139,-2.114,-2.114,-2.1121,-2.1119,-2.1118,-2.1117,-2.1184,-2.1187,-2.119,0,0,0,0,0,0,0,0,0,0,0,0,0,-2.0934,-2.0936,-2.1074,-2.1075,-2.1075,-2.1139,-2.114,-2.114,-2.1121,-2.1119,-2.1118,-2.1116,-2.1183,-2.1186,-2.119,0,0,0,0,0,0,0,0,0,0,0,0,0,-2.0996,-2.0937,-2.1074,-2.1073,-2.1074,-2.1139,-2.114,-2.1141,-2.1121,-2.1119,-2.1117,-2.1115,-2.1181,-2.1186,-2.119,-2.126,0,0,-2.1204,-2.1206,0,0,0,0,0,0,0,0,-2.0993,-2.1001,-2.1072,-2.1073,-2.1074,-2.1119,-2.1115,-2.1181,-2.1122,-2.1103,-2.1117,-2.1114,-2.1164,-2.117,-2.1187,-2.1263,-2.1266,-2.1205,-2.1208,-2.121,-2.1211,0,0,0,0,0,0,0,-2.0988,-2.0998,-2.1099,-2.1074,-2.1075,-2.107,-2.1077,-2.1127,-2.1144,-2.1105,-2.1103,-2.1111,-2.1164,-2.1182,-2.1188,-2.1267,-2.1205,-2.1209,-2.1212,-2.1213,-2.1404,-2.1406,0,0,0,0,0,0,-2.0983,-2.0995,-2.1097,-2.1101,-2.1028,-2.1074,-2.1082,-2.1107,-2.1144,-2.1147,-2.1113,-2.111,-2.1175,-2.1183,-2.119,-2.1274,-2.121,-2.1214,-2.1216,-2.1402,-2.1404,-2.1407,0,0,0,0,0,0,-2.098,-2.0993,-2.1095,-2.1048,-2.1061,-2.1079,-2.1107,-2.1109,-2.1127,-2.115,-2.1153,-2.1128,-2.1174,-2.1184,-2.1243,-2.1276,-2.1216,-2.122,-2.1399,-2.1402,-2.1406,-2.1442,0,0,0,0,0,0,-2.0976,-2.0992,-2.1018,-2.1049,-2.1063,-2.1146,-2.111,-2.1112,-2.1135,-2.1132,-2.1165,-2.1169,-2.1173,-2.1236,-2.1247,-2.1281,-2.1224,-2.1396,-2.14,-2.1405,-2.1438,-2.1446,-2.1453,0,0,0,0,0,-2.0971,-2.1025,-2.1019,-2.1032,-2.1096,-2.1148,-2.1156,-2.116,-2.1138,-2.1165,-2.1179,-2.1168,-2.1271,-2.1242,-2.1255,-2.1291,-2.1394,-2.1399,-2.1404,-2.1434,-2.1444,-2.1453,0,0,0,0,0,0,-2.0997,-2.1029,-2.1023,-2.1088,-2.1115,-2.1144,-2.1178,-2.1171,-2.1205,-2.12,-2.1204,-2.1212,-2.1272,-2.1287,-2.1255,-2.136,-2.1329,-2.1337,-2.1348,-2.1358,-2.1365,-2.136,-2.1227,0,0,0,0,0,-2.1011,-2.105,-2.1076,-2.1131,-2.1145,-2.1159,-2.1182,-2.1183,-2.1211,-2.1222,-2.1241,-2.127,-2.1309,-2.1334,-2.1371,-2.144,-2.1447,-2.1471,-2.1479,-2.1485,-2.1492,-2.1531,-2.1542,-2.1424,-2.1424,-2.1424,0,0,-2.1038,-2.1061,-2.1085,-2.1136,-2.1158,-2.1198,-2.1169,-2.1213,-2.1243,-2.1229,-2.1286,-2.1301,-2.1333,-2.1398,-2.1427,-2.1412,-2.1526,-2.1492,-2.1497,-2.15,-2.1537,-2.1548,-2.1558,-2.1427,-2.1427,-2.1426,0,0,-2.111,-2.1131,-2.1179,-2.1201,-2.1234,-2.1243,-2.1255,-2.1286,-2.1295,-2.1352,-2.1343,-2.138,-2.1446,-2.147,-2.149,-2.1573,-2.1563,-2.1585,-2.1625,-2.1662,-2.1672,-2.168,-2.171,-2.172,-2.1591,-2.1591,-2.1592,0,-2.114,-2.1201,-2.1205,-2.125,-2.1273,-2.1263,-2.1312,-2.1334,-2.1377,-2.1394,-2.1377,-2.1461,-2.1482,-2.1552,-2.1572,-2.1589,-2.1603,-2.158,-2.167,-2.1678,-2.1686,-2.1714,-2.1725,-2.1594,-2.1594,-2.1593,-2.1593,0,-2.1237,-2.1279,-2.1314,-2.1357,-2.1384,-2.1431,-2.1443,-2.147,-2.1469,-2.1481,-2.154,-2.1565,-2.1607,-2.1624,-2.1623,-2.1694,-2.1684,-2.1669,-2.1638,-2.17,-2.1726,-2.1737,-2.1597,-2.1596,-2.1596,-2.1595,0,0,-2.1324,-2.137,-2.1382,-2.1402,-2.1438,-2.1471,-2.1519,-2.156,-2.1584,-2.1614,-2.1654,-2.1712,-2.1698,-2.1722,-2.1724,-2.1757,-2.1821,-2.1738,-2.1738,-2.1752,-2.1902,-2.1913,-2.1925,-2.1816,-2.1818,-2.1819,-2.1899,0,-2.1399,-2.1481,-2.1487,-2.1562,-2.1602,-2.1594,-2.1635,-2.1662,-2.1675,-2.1711,-2.1724,-2.1765,-2.1744,-2.1758,-2.1791,-2.1806,-2.1851,-2.1801,-2.1853,-2.1855,-2.1845,-2.1939,-2.1951,-2.2025,-2.191,-2.1911,-2.1913,0,-2.1496,-2.153,-2.1609,-2.1641,-2.1658,-2.1695,-2.1734,-2.1768,-2.1799,-2.1806,-2.1833,-2.1831,-2.1881,-2.1849,-2.1917,-2.1883,-2.1905,-2.1916,-2.1919,-2.1923,-2.1887,-2.1946,-2.2048,-2.2059,-2.1929,-2.1928,-2.1926,0,-2.1552,-2.1618,-2.1674,-2.1691,-2.1729,-2.1756,-2.1773,-2.1802,-2.1827,-2.1862,-2.1878,-2.1918,-2.194,-2.1971,-2.198,-2.1956,-2.2048,-2.2017,-2.2056,-2.2056,-2.2075,-2.2073,-2.2182,-2.209,-2.209,-2.209,-2.2089,0,-2.1634,-2.1682,-2.1699,-2.1734,-2.1789,-2.1795,-2.1849,-2.1865,-2.1892,-2.1929,-2.1925,-2.1961,-2.1971,-2.2009,-2.2017,-2.2072,-2.2082,-2.2089,-2.2091,-2.2089,-2.2089,-2.2103,-2.2098,-2.2093,-2.2092,-2.2091,-2.2091,0,-2.1705,-2.1718,-2.1779,-2.1811,-2.182,-2.1859,-2.1887,-2.192,-2.1933,-2.1981,-2.1992,-2.2012,-2.2056,-2.2069,-2.2122,-2.2128,-2.2193,-2.219,-2.2182,-2.2182,-2.222,-2.2216,-2.2341,-2.2358,-2.2256,-2.2257,-2.2258,0,-2.1756,-2.1793,-2.183,-2.1855,-2.1873,-2.1914,-2.1939,-2.1948,-2.1975,-2.2014,-2.2043,-2.2087,-2.2123,-2.2194,-2.2213,-2.2255,-2.2252,-2.2293,-2.2258,-2.2256,-2.2253,-2.225,-2.2254,-2.2299,-2.2301,-2.2301,-2.2302,0,-2.1845,-2.185,-2.1887,-2.1927,-2.1958,-2.199,-2.2021,-2.2042,-2.2055,-2.2086,-2.2131,-2.2159,-2.2214,-2.2258,-2.23,-2.2318,-2.2313,-2.2313,-2.2324,-2.2323,-2.2317,-2.2321,-2.22,-2.231,-2.2309,-2.2309,-2.2308,-2.2308,-2.1907,-2.194,-2.1971,-2.2013,-2.2038,-2.2067,-2.21,-2.2117,-2.2155,-2.22,-2.2204,-2.2253,-2.2285,-2.2341,-2.2361,-2.2401,-2.2388,-2.2405,-2.2409,-2.2412,-2.2415,-2.2312,-2.2408,-2.2408,-2.2408,-2.2408,-2.2408,0,-2.1995,-2.2016,-2.2054,-2.2098,-2.2131,-2.2124,-2.2158,-2.2186,-2.223,-2.226,-2.2295,-2.2348,-2.2391,-2.2414,-2.2457,-2.2484,-2.2483,-2.2495,-2.2493,-2.2497,-2.2424,-2.241,-2.2496,-2.2496,-2.2496,-2.2495,-2.2495,-2.2495,-2.2045,-2.2101,-2.2111,-2.2179,-2.2199,-2.2247,-2.2267,-2.2294,-2.2318,-2.2378,-2.2413,-2.2429,-2.2456,-2.2502,-2.2541,-2.2547,-2.2563,-2.2576,-2.2581,-2.2511,-2.2502,-2.2494,-2.2481,-2.258,-2.258,-2.2651,-2.2652,-2.2652]},{"header":{"parameterUnit":"m.s-1","parameterCategory":1,"la1":30.2991,"la2":30.254,"lo1":-89.0895,"lo2":-89.0444,"dy":0.0017,"dx":0.0017,"nx":28,"ny":28,"refTime":"2023-10-18T09:00:00:Z","depth":0,"parameterNumber":3,"parameterNumberName":"V-component_of_WINDS"},"data":[0,0,0,0,0,0,0,0,0,0,0,0,0,0,0,0,0,0,0,0,0,0,0,0,0,0,0,0,0,0,0,0,0,0,0,0,0,0,0,0,0,0,0,0,0,0,0,0,0,0,0,0,0,0,0,0,0,0,-0.7608,-0.7607,0,-0.7546,-0.7545,-0.7544,-0.7476,-0.7475,-0.7474,-0.7473,-0.741,-0.7409,-0.7408,0,0,0,0,0,0,0,0,0,0,0,0,0,-0.7667,-0.7667,-0.7608,-0.7607,-0.7606,-0.7546,-0.7545,-0.7544,-0.7476,-0.7474,-0.7473,-0.7472,-0.741,-0.7409,-0.7408,0,0,0,0,0,0,0,0,0,0,0,0,0,-0.7627,-0.7666,-0.7608,-0.7565,-0.756,-0.7546,-0.7545,-0.7544,-0.7476,-0.7474,-0.7473,-0.7472,-0.741,-0.7409,-0.7408,-0.7431,0,0,-0.7405,-0.7404,0,0,0,0,0,0,0,0,-0.763,-0.7625,-0.7572,-0.7568,-0.7563,-0.7517,-0.7543,-0.7506,-0.7476,-0.7508,-0.7473,-0.7471,-0.7447,-0.7442,-0.7434,-0.7428,-0.7426,-0.7405,-0.7404,-0.7404,-0.7403,0,0,0,0,0,0,0,-0.7632,-0.7627,-0.7583,-0.7571,-0.7566,-0.7549,-0.7541,-0.7536,-0.7487,-0.7505,-0.75,-0.7494,-0.7444,-0.7435,-0.7432,-0.7425,-0.7405,-0.7404,-0.7403,-0.7403,-0.7435,-0.7436,0,0,0,0,0,0,-0.7642,-0.763,-0.7585,-0.7581,-0.7593,-0.7549,-0.7541,-0.7533,-0.7486,-0.7478,-0.7495,-0.7491,-0.7438,-0.7434,-0.743,-0.7454,-0.7404,-0.7403,-0.7402,-0.7433,-0.7435,-0.7437,0,0,0,0,0,0,-0.7643,-0.7638,-0.7588,-0.7604,-0.7596,-0.7549,-0.7542,-0.7533,-0.7524,-0.7479,-0.747,-0.7495,-0.7437,-0.7431,-0.7431,-0.7451,-0.7402,-0.7401,-0.7431,-0.7434,-0.7436,-0.7503,0,0,0,0,0,0,-0.7645,-0.7639,-0.7648,-0.7605,-0.7596,-0.7591,-0.7543,-0.7532,-0.7522,-0.7516,-0.7477,-0.7469,-0.7435,-0.7433,-0.743,-0.7448,-0.74,-0.743,-0.7432,-0.7435,-0.7498,-0.7507,-0.7514,0,0,0,0,0,-0.7648,-0.7669,-0.7648,-0.7643,-0.7605,-0.7592,-0.7587,-0.7547,-0.7524,-0.7532,-0.7503,-0.747,-0.7449,-0.7434,-0.743,-0.7448,-0.7428,-0.7432,-0.7435,-0.7495,-0.7505,-0.7514,0,0,0,0,0,0,-0.7716,-0.7663,-0.7639,-0.7647,-0.7625,-0.758,-0.7589,-0.7559,-0.7543,-0.7538,-0.749,-0.7482,-0.7487,-0.7467,-0.7452,-0.7468,-0.7434,-0.7437,-0.7481,-0.749,-0.7498,-0.7503,-0.7399,0,0,0,0,0,-0.7731,-0.7725,-0.7679,-0.7691,-0.768,-0.7637,-0.763,-0.7601,-0.7576,-0.7566,-0.7536,-0.7513,-0.7501,-0.7494,-0.7481,-0.7495,-0.7485,-0.7505,-0.7513,-0.752,-0.7523,-0.7529,-0.7537,-0.7448,-0.7448,-0.7448,0,0,-0.7764,-0.7735,-0.7733,-0.7704,-0.7682,-0.7677,-0.7629,-0.7625,-0.762,-0.7565,-0.7563,-0.7541,-0.7512,-0.7519,-0.7521,-0.7503,-0.7545,-0.7524,-0.753,-0.7529,-0.7533,-0.7542,-0.7549,-0.745,-0.745,-0.7449,0,0,-0.7822,-0.7798,-0.7806,-0.7785,-0.7754,-0.7725,-0.7727,-0.7686,-0.7669,-0.7667,-0.7625,-0.7619,-0.7599,-0.758,-0.7568,-0.7617,-0.7586,-0.7614,-0.7655,-0.7662,-0.7669,-0.7675,-0.7693,-0.77,-0.7617,-0.7617,-0.7618,0,-0.7867,-0.7856,-0.7813,-0.7812,-0.78,-0.7749,-0.7756,-0.7738,-0.7704,-0.7697,-0.7677,-0.7651,-0.7628,-0.763,-0.7642,-0.7634,-0.7635,-0.7619,-0.7671,-0.7677,-0.7682,-0.7698,-0.7705,-0.7621,-0.7621,-0.762,-0.762,0,-0.7913,-0.7907,-0.7916,-0.7885,-0.7874,-0.7877,-0.7834,-0.7828,-0.78,-0.7773,-0.7771,-0.7741,-0.7721,-0.7719,-0.7692,-0.7718,-0.7707,-0.768,-0.7645,-0.7694,-0.7709,-0.7715,-0.7626,-0.7625,-0.7624,-0.7623,0,0,-0.8013,-0.7956,-0.7961,-0.7946,-0.7907,-0.7901,-0.7901,-0.7881,-0.7877,-0.7855,-0.7854,-0.7839,-0.7813,-0.7799,-0.7769,-0.7775,-0.7816,-0.7747,-0.7745,-0.7761,-0.7843,-0.7864,-0.7872,-0.7795,-0.7796,-0.7797,-0.7845,0,-0.8063,-0.8061,-0.8022,-0.8031,-0.8024,-0.7975,-0.7975,-0.7952,-0.7927,-0.7917,-0.7889,-0.7879,-0.7845,-0.7837,-0.784,-0.7811,-0.7832,-0.7807,-0.7795,-0.7795,-0.7804,-0.788,-0.7903,-0.7949,-0.7851,-0.7852,-0.7852,0,-0.8123,-0.8104,-0.8112,-0.8073,-0.8069,-0.807,-0.8048,-0.8039,-0.8012,-0.7993,-0.7977,-0.7943,-0.7941,-0.7907,-0.7904,-0.7887,-0.788,-0.7865,-0.7865,-0.7863,-0.7827,-0.7881,-0.7963,-0.7971,-0.7861,-0.786,-0.786,0,-0.8195,-0.8172,-0.8174,-0.8162,-0.8116,-0.8118,-0.8099,-0.807,-0.806,-0.8041,-0.8034,-0.8015,-0.8005,-0.7991,-0.7953,-0.7932,-0.7953,-0.7917,-0.7938,-0.7939,-0.7946,-0.7946,-0.8029,-0.794,-0.794,-0.794,-0.7939,0,-0.8256,-0.8264,-0.8205,-0.8207,-0.8213,-0.8168,-0.8175,-0.8152,-0.8126,-0.8122,-0.8078,-0.8075,-0.8024,-0.8016,-0.7986,-0.7988,-0.7983,-0.7968,-0.796,-0.7972,-0.7975,-0.7968,-0.7964,-0.7941,-0.7941,-0.7941,-0.794,0,-0.8339,-0.83,-0.8299,-0.8255,-0.8245,-0.8251,-0.8214,-0.8213,-0.8185,-0.818,-0.8176,-0.8132,-0.812,-0.808,-0.8058,-0.8037,-0.8048,-0.8033,-0.8058,-0.8053,-0.8077,-0.8076,-0.8159,-0.8168,-0.8073,-0.8074,-0.8075,0,-0.8381,-0.8385,-0.8342,-0.8336,-0.8319,-0.831,-0.8299,-0.8255,-0.8246,-0.8214,-0.8217,-0.8201,-0.8186,-0.8168,-0.8134,-0.8117,-0.8101,-0.8131,-0.8098,-0.811,-0.8102,-0.8103,-0.8103,-0.8139,-0.814,-0.8141,-0.8142,0,-0.846,-0.844,-0.8427,-0.8407,-0.8396,-0.8378,-0.8358,-0.8356,-0.8306,-0.8298,-0.8284,-0.8273,-0.8249,-0.8234,-0.8211,-0.8191,-0.8159,-0.8153,-0.8157,-0.817,-0.8185,-0.8178,-0.8079,-0.8151,-0.815,-0.815,-0.8149,-0.8149,-0.8524,-0.8525,-0.8495,-0.8482,-0.8462,-0.8443,-0.8441,-0.8412,-0.84,-0.8377,-0.8352,-0.8341,-0.8313,-0.8278,-0.8261,-0.8252,-0.8235,-0.8241,-0.8242,-0.8245,-0.8251,-0.8185,-0.8248,-0.8248,-0.8247,-0.8247,-0.8247,0,-0.8601,-0.8579,-0.8567,-0.854,-0.853,-0.8499,-0.8475,-0.8468,-0.8459,-0.8435,-0.8421,-0.8406,-0.8391,-0.8355,-0.8336,-0.8336,-0.8321,-0.8333,-0.8333,-0.8329,-0.8267,-0.8266,-0.8346,-0.8346,-0.8346,-0.8346,-0.8346,-0.8346,-0.864,-0.8641,-0.8618,-0.8609,-0.8586,-0.8576,-0.8565,-0.8548,-0.8528,-0.8513,-0.85,-0.8477,-0.8448,-0.8427,-0.8412,-0.8401,-0.8397,-0.8414,-0.84,-0.8343,-0.8333,-0.8325,-0.8323,-0.8414,-0.8414,-0.8462,-0.8463,-0.8463]}]]